Location: Mercogliano
(40.9167°N, 14.7333°E)
Time: 02:58:54
(UTC+00:00)

X-37B - Pass Details

Date: 29 November 2020
Orbit: 383 x 391 km, 45.1° (Epoch: 22 January)

Event Time Altitude Azimuth Distance (km) Brightness Sun altitude
Rises 16:04:33 0° 229° (SW) 2,248 6.2 -6.0°
Reaches altitude 10° 16:06:40 10° 222° (SW) 1,399 4.6 -6.3°
Maximum altitude 16:09:39 41° 150° (SSE) 573 1.4 -6.9°
Drops below altitude 10° 16:12:40 10° 78° (ENE) 1,409 2.8 -7.4°
Enters shadow 16:12:45 - 78° (ENE) 1,444 2.8 -7.4°
